This demonstration page uses our WeatherBlox Daily Observations layout. Learn more.

Left ArrowRight Arrow

39.29038, -76.61219

Hourly Observations for June 20, 2020

Temp ( °F °C ) Dew Point ( °F °C ) Humidity (%) Winds ( mph kmh ) Pressure ( in mb ) Visibility ( mi km ) Precip ( " mm )
12:54 am 00:54 Mostly Cloudy 71 21.7 67 19.4 87 87 SSE 3 6 30.06 1018 10 16 0.00 0.00
1:54 am 01:54 Partly Cloudy 69 20.6 66 18.9 90 90 SW 5 7 30.04 1017 10 16 0.00 0.00
2:54 am 02:54 Mostly Clear 67 19.4 65 18.3 93 93 Calm 30.04 1017 10 16 0.00 0.00
3:54 am 03:54 Mostly Clear with Mist and Fog 66 18.9 64 17.8 93 93 Calm 30.04 1017 6 10 0.00 0.00
4:54 am 04:54 Mostly Clear with Mist and Fog 66 18.9 64 17.8 93 93 Calm 30.04 1017 6 10 0.00 0.00
5:54 am 05:54 Partly Cloudy with Mist and Fog 68 20 65 18.3 90 90 SSE 3 6 30.05 1018 10 16 0.00 0.00
6:54 am 06:54 Partly Cloudy 68 20 65 18.3 90 90 Calm 30.04 1017 10 16 0.00 0.00
7:54 am 07:54 Mostly Cloudy 73 22.8 66 18.9 79 79 S 3 6 30.05 1018 10 16 0.00 0.00
8:54 am 08:54 Mostly Cloudy 75 23.9 67 19.4 76 76 Calm 30.06 1018 10 16 0.00 0.00
9:32 am 09:32 Mostly Cloudy 77 25 67 19.4 71 71 NNW 3 6 30.06 1018 10 16 0.00 0.00
9:54 am 09:54 Mostly Cloudy 77 25 67 19.4 71 71 Calm 30.06 1018 10 16 0.00 0.00
10:23 am 10:23 Cloudy with Nearby Thunderstorms 79 26.1 68 20 69 69 N 5 7 30.05 1018 10 16 0.00 0.00
10:31 am 10:31 Cloudy 80 26.7 68 20 67 67 WNW 3 6 30.05 1018 10 16 0.00 0.00
10:54 am 10:54 Mostly Cloudy 78 25.6 67 19.4 69 69 Calm 30.05 1018 10 16 0.00 0.00
11:08 am 11:08 Mostly Cloudy with Thunderstorms 77 25 67 19.4 71 71 ENE 8 13 30.06 1018 10 16 0.00 0.00
11:27 am 11:27 Mostly Cloudy with Strong Thunderstorms 70 21.1 65 18.3 84 84 ESE 18 30 30.08 1018 1 1 0.22 5.59
11:34 am 11:34 Mostly Cloudy with Strong Thunderstorms 70 21.1 62 16.7 76 76 ESE 8 13 30.07 1018 1 1 0.56 14.22
11:54 am 11:54 Cloudy with Thunderstorms 68 20 65 18.3 90 90 Calm 30.06 1018 2 3 0.81 20.57
12:15 pm 12:15 Cloudy with Thunderstorms 69 20.6 65 18.3 87 87 Calm 30.06 1018 4 6 0.06 1.52
12:54 pm 12:54 Cloudy with Thunderstorms 68 20 65 18.3 90 90 WNW 5 7 30.05 1018 6 10 0.09 2.29
1:15 pm 13:15 Mostly Cloudy with Light Rain 69 20.6 66 18.9 90 90 Calm 30.06 1018 10 16 0.01 0.25
1:54 pm 13:54 Mostly Cloudy with Light Rain 70 21.1 66 18.9 87 87 WNW 3 6 30.04 1017 10 16 0.02 0.51
2:54 pm 14:54 Mostly Cloudy 72 22.2 67 19.4 84 84 NW 3 6 30.03 1017 10 16 0.01 0.25
3:54 pm 15:54 Mostly Cloudy 73 22.8 67 19.4 81 81 Calm 30.04 1017 10 16 0.00 0.00
4:54 pm 16:54 Mostly Cloudy 76 24.4 69 20.6 79 79 Calm 29.99 1016 10 16 0.00 0.00
5:54 pm 17:54 Mostly Cloudy 76 24.4 67 19.4 74 74 E 8 13 30.00 1016 10 16 0.00 0.00
6:54 pm 18:54 Mostly Cloudy 77 25 67 19.4 71 71 Calm 30.00 1016 10 16 0.00 0.00
7:54 pm 19:54 Mostly Cloudy 74 23.3 67 19.4 79 79 E 6 9 30.00 1016 10 16 0.00 0.00
8:54 pm 20:54 Mostly Cloudy 72 22.2 66 18.9 82 82 E 7 11 29.99 1016 10 16 0.00 0.00
9:54 pm 21:54 Mostly Cloudy 71 21.7 67 19.4 87 87 E 5 7 30.01 1016 10 16 0.00 0.00
10:54 pm 22:54 Mostly Cloudy 70 21.1 67 19.4 90 90 E 6 9 30.00 1016 10 16 0.00 0.00
11:54 pm 23:54 Partly Cloudy 70 21.1 67 19.4 90 90 Calm 30.00 1016 10 16 0.00 0.00

Powered by AerisWeather